Location: Isola Pescaroli
(45.0500°N, 10.1667°E)
Time: 01:35:15
(UTC+00:00)

SL-4 R/B - Pass Details

Date: 18 June 2021
Orbit: 428 x 662 km, 51.6° (Epoch: 29 July)

Event Time Altitude Azimuth Distance (km) Brightness Sun altitude
Exits shadow 23:57:36 18° 273° (W) 1,285 3.8 -21.0°
Maximum altitude 00:00:09 45° 340° (NNW) 675 2.8 -20.9°
Drops below altitude 10° 00:03:40 10° 54° (NE) 1,617 5.0 -20.8°
Sets 00:05:48 0° 61° (ENE) 2,463 5.9 -20.8°
